Regional Weather Roundup
Issued by NWS

Home | Current Version | Previous Version | Graphics & Text | Print | Product List | Glossary On
Versions: 1 2 3 4 5 6 7 8 9 10 11 12 13 14 15 16 17 18 19 20 21 22 23 24 25 26 27 28 29 30 31 32 33 34 35 36 37 38 39 40 41 42 43 44 45 46 47 48 49 50
000
ASUS43 KMKX 072200
RWRWI

WISCONSIN REGIONAL WEATHER ROUNDUP
NATIONAL WEATHER SERVICE MILWAUKEE/SULLIVAN WI
400 PM CST SUN FEB 07 2016

NOTE: "FAIR" INDICATES FEW OR NO CLOUDS BELOW 12,000 FEET WITH NO
SIGNIFICANT WEATHER AND/OR OBSTRUCTIONS TO VISIBILITY.

WIZ001-002-006>008-014>016-023>028-072300-
NORTHWEST WISCONSIN

CITY           SKY/WX    TMP DP  RH WIND       PRES   REMARKS
SUPERIOR ARPT  CLOUDY    35  31  88 W12G20    29.50R WCI  26
ASHLAND        CLOUDY    36  33  89 SW9       29.50R WCI  29
HAYWARD        LGT SNOW  34  31  88 SW8       29.52R FOG     WCI  27
SIREN          LGT RAIN  34  32  92 W10       29.55S WCI  26
CUMBERLAND     LGT SNOW  34  30  86 W10       29.55S WCI  26
RICE LAKE      CLOUDY    37  30  76 W7        29.57S WCI  31
CHETEK         CLOUDY    38  28  66 W9        29.56R WCI  31
LADYSMITH      CLOUDY    37  30  75 W9        29.56R WCI  30
EAU CLAIRE     NOT AVBL
MENOMONIE      CLOUDY    40  26  56 SW16G22   29.59S WCI  32
NEW RICHMOND   CLOUDY    37  28  69 W13G23    29.59R WCI  29
OSCEOLA        CLOUDY    38  29  71 W10       29.61R WCI  31
$$

WIZ003>005-009-010-017-018-072300-
NORTH CENTRAL WISCONSIN

CITY           SKY/WX    TMP DP  RH WIND       PRES   REMARKS
MANITOWISH WTR LGT RAIN  33  32  96 SW7       29.48R WCI  27
ARBOR VITAE    FLURRIES  37  34  90 SW8       29.50R WCI  30
WOODRUFF       FLURRIES  37  34  90 SW8       29.50R WCI  30
RHINELANDER    CLOUDY    34  29  82 SW6       29.52R WCI  29
EAGLE RIVER    LGT SNOW  33  32  98 SW8       29.49R WCI  25
LAND O LAKES   LGT SNOW  33  32  97 SW3       29.49R
PHILLIPS       FLURRIES  34  30  87 SW8       29.51R WCI  27
TOMAHAWK       FLURRIES  35  29  79 SW6       29.53R WCI  30
MEDFORD        CLOUDY    36  28  74 W8        29.54R WCI  29
MERRILL        CLOUDY    37  29  74 W10       29.55R WCI  29
$$

WIZ029-030-035-036-043>047-072300-
CENTRAL WISCONSIN

CITY           SKY/WX    TMP DP  RH WIND       PRES   REMARKS
WAUSAU         CLOUDY    39  27  62 W10       29.55R WCI  32
MOSINEE        CLOUDY    37  28  70 W13       29.58R WCI  29
MARSHFIELD     CLOUDY    39  25  57 W12       29.57R WCI  32
STEVENS POINT  CLOUDY    38  27  63 SW8       29.58R WCI  32
WAUPACA        CLOUDY    42  29  60 SW7       29.60S
WAUTOMA        NOT AVBL
WISC RAPIDS    CLOUDY    40  24  53 W15       29.61R WCI  32
CAMP DOUGLAS   NOT AVBL
$$

WIZ011>013-019>022-031-037>040-048>050-072300-
NORTHEAST WISCONSIN

CITY           SKY/WX    TMP DP  RH WIND       PRES   REMARKS
ANTIGO         CLOUDY    35  29  79 W13       29.54R WCI  26
SHAWANO        CLOUDY    41  30  65 SW6       29.58R
OCONTO         CLOUDY    39  31  73 SW5       29.59R
STURGEON BAY   CLOUDY    37  28  70 SW8       29.62R WCI  31
GREEN BAY      CLOUDY    39  30  70 SW6       29.61R WCI  35
MANITOWOC      NOT AVBL
APPLETON       PTSUNNY   39  28  65 VRB5      29.59R
CLINTONVILLE   CLOUDY    39  28  65 W7        29.58S WCI  34
OSHKOSH        CLOUDY    40  29  64 SW7       29.61R
$$

WIZ032>034-041-042-053>061-072300-
SOUTHWEST WISCONSIN

CITY           SKY/WX    TMP DP  RH WIND       PRES   REMARKS
LA CROSSE      CLOUDY    39  25  57 W14G23    29.66R WCI  31
SPARTA         PTSUNNY   40  27  59 W10G18    29.65R WCI  34
VIROQUA        MOSUNNY   38  26  62 W17G31    29.66R WCI  28
BOSCOBEL       MOSUNNY   41  25  53 W14G22    29.71R
PRAIRIE DU CHI SUNNY     40  25  55 W9G25     29.72S WCI  34
PLATTEVILLE    SUNNY     39  28  64 W17G26    29.71S WCI  30
$$

WIZ056-057-062-063-064-067-068-072300-
SOUTH CENTRAL WISCONSIN

CITY           SKY/WX    TMP DP  RH WIND       PRES   REMARKS
REEDSBURG      SUNNY     39  26  59 W14G24    29.65R WCI  31
BARABOO/DELLS  SUNNY     40  26  56 SW10G21   29.64R WCI  33
LONE ROCK      NOT AVBL
MINERAL POINT  SUNNY     39  28  65 W17       29.68S WCI  30
MADISON        PTSUNNY   40  27  59 SW7       29.66R
MIDDLETON      SUNNY     42  28  58 W10       29.67R
WATERTOWN      SUNNY     41  30  65 SW15      29.65S
MONROE         SUNNY     39  28  65 W25G31    29.70R WCI  28
JANESVILLE     SUNNY     45  28  53 W16G23    29.69R
$$

WIZ051-052-058>065-066-070>072-072300-
SOUTHEAST WISCONSIN

CITY           SKY/WX    TMP DP  RH WIND       PRES   REMARKS
MILWAUKEE      MOSUNNY   44  30  57 W18G24    29.67R
WAUKESHA       MOSUNNY   39  28  65 SW13G23   29.67R WCI  32
MILWAUKEE/TIMM SUNNY     43  28  56 W16       29.66S
RACINE         SUNNY     44  31  60 SW12G21   29.69R
BURLINGTON     SUNNY     41  31  67 SW13G22   29.68S
KENOSHA        SUNNY     43  32  65 SW18      29.68S
FOND DU LAC    CLOUDY    40  30  67 SW9       29.63R WCI  34
SHEBOYGAN      MOSUNNY   40  30  67 SW16      29.64R WCI  31
WEST BEND      SUNNY     41  30  65 SW13      29.64R
JUNEAU         SUNNY     39  30  69 SW15      29.65S WCI  31
$$

LSZ147-162-072300-
LAKE SUPERIOR

STATION/POSITION TIME  TEMP    WIND        PRES    WAVE
                       AIR SEA DIR/SP/G            HT/PER
                 (UTC) (F)     (DEG/KT/KT) (MB)    (FT/S)
DEVILS ISLAND    2100   35     240/ 18/ 21  998.1R
PORT WING        2100   36     220/  7/ 12  998.6
SAXON HARBOR     2100   37                  998.3
$$

LMZ867-665-643>646-072300-
LAKE MICHIGAN

STATION/POSITION TIME  TEMP    WIND        PRES    WAVE
                       AIR SEA DIR/SP/G            HT/PER
                 (UTC) (F)     (DEG/KT/KT) (MB)    (FT/S)
CHAMBERS ISLAND  2100   37     190/  7/ 12 1001.7S
NORTHPORT PIER   2100   41     230/  4/ 10 1001.4R
KEWAUNEE LAKESHO 2100   40     200/  7/ 10 1001.9R
SHEBOYGAN LAKESH 2100   43     250/ 14/ 17 1003.9R
PORT WASHINGTON  2140   45     250/ 10/ 17 1004.7R
MILWAUKEE LAKESH 2110   44     230/ 15/ 20   N/A
KENOSHA   LAKESH 2100   42     240/ 12/ 22 1005.4R
$$

TC  - TEMPERATURE IN CELSIUS
VSB - VISIBILITY IN STATUTE MILES
WCI - WIND CHILL INDEX
HX  - HEAT INDEX





USA.gov is the U.S. government's official web portal to all federal, state and local government web resources and services.